カタログに戻る

CZ-6A DEB

運用中PO
NORAD 54346·DEBRIS·🇨🇳 China

打ち上げ Nov 11, 2022 から Taiyuan Satellite Launch Center

Loading…

次のパス (今後24時間)

TLE

最新Source: Space-Track

元期: Sep 14, 2026, 13:01 UTC

1 54346U 22151CR  26257.54244073  .00215639  00000-0  42510-2 0  9994
2 54346  98.5421  15.4644 0021842 179.0177 181.1115 15.46143823206469

AllMySatでCZ-6A DEBをリアルタイム追跡

Download on the App Store